Location: Bats
(43.6587°N, 0.4584°W)
Time: 07:15:47
(UTC+00:00)

Cosmos 1833 Rocket - Pass Details

Date: 12 January 2026
Orbit: 831 x 839 km, 71.0° (Epoch: 10 February)

Event Time Altitude Azimuth Distance (km) Brightness Sun altitude
Rises 19:01:23 0° 175° (S) 3,373 5.9 -23.7°
Reaches altitude 10° 19:04:02 10° 165° (SSE) 2,444 5.0 -24.2°
Enters shadow 19:05:24 17° 156° (SSE) 2,021 4.5 -24.4°
